Regional Weather Roundup
Issued by NWS

Home | Current Version | Previous Version | Text Only | Print | Product List | Glossary On
Versions: 1 2 3 4 5 6 7 8 9 10 11 12 13 14 15 16 17 18 19 20 21 22 23 24 25 26 27 28 29 30 31 32 33 34 35 36 37 38 39 40 41 42 43 44 45 46 47 48 49 50
000
ASUS45 KTFX 290004
RWRMT
MONTANA HOURLY WEATHER ROUNDUP
NATIONAL WEATHER SERVICE GREAT FALLS MT
504 PM MST FRI NOV 28 2014

NOTE: "FAIR" INDICATES FEW OR NO CLOUDS BELOW 12000 FEET WITH NO
SIGNIFICANT WEATHER AND/OR OBSTRUCTIONS TO VISIBILITY.

* THESE STATIONS ARE NOT UNDER NWS QUALITY CONTROL. THEY DO NOT
   REPORT WEATHER SUCH AS PRECIPITATION OR FOG.

MTZ001>007-043-290100-
WEST OF THE DIVIDE
CITY           SKY/WX    TMP DP  RH WIND       PRES   REMARKS
KALISPELL      LGT RAIN  46  37  71 S10       29.33F
MISSOULA       CLOUDY    46  34  63 VRB6      29.48F
BUTTE          CLOUDY    45  25  45 S14G29    29.54F
MULLAN PASS    SNOW      32  32 100 S10G23    29.36F VSB 1/2  WCI  24
* ESSEX        N/A       40  38  93 SE2G12     N/A
* LINCOLN      N/A       45  31  58 S6G12      N/A
* LOOKOUT PASS N/A       38  37  96 SE9G15     N/A   WCI  32
* POLSON       N/A       44  37  76 S4G10      N/A
* RONAN APT    CLOUDY    48  36  63 SE11G21    N/A
* SEELEY LAKE  N/A       43  34  71 S5         N/A
* THOMP F APT  CLOUDY    45  17  32 S16G28     N/A
* YAAK HILL    N/A       45  42  89 S3G9       N/A
$$

MTZ008-052>055-290100-
SOUTHWEST MONTANA
CITY           SKY/WX    TMP DP  RH WIND       PRES   REMARKS
BOZEMAN        MOCLDY    52  25  35 SW13      29.51F
DILLON         MOCLDY    50  16  26 SW28G37   29.55S
* W YELLOWSTON MOCLDY    41  21  45 SW7G21     N/A
* ENNIS APT    MOCLDY    48  21  34 SE22G29    N/A
* THREE FORKS  MOCLDY    54  39  57 N/A        N/A
* BOULDER HILL N/A       45  22  40 S12G20     N/A
* MONIDA PASS  N/A       40  17  39 SE14G21    N/A   WCI  32
* RAYNOLDS PAS N/A       42  25  51 S28G38     N/A
* WHITEHALL    N/A       55  26  33 SW15G30    N/A
* WISE RIVER   N/A       45  22  40 NW19G40    N/A
$$

MTZ009>010-012-014-046-048-049-054-290100-
EAST SLOPES AND CENTRAL MONTANA
CITY           SKY/WX    TMP DP  RH WIND       PRES   REMARKS
CUT BANK       LGT SNOW   0  -6  75 N22G29    29.56R VSB 2    WCI -23
GREAT FALLS    CLOUDY    14  10  84 N16       29.50R WCI  -2
HELENA         CLOUDY    48  30  50 NE6       29.44F
* DEARBORN     N/A       54  28  37 S14G29     N/A
* EAST GLACIER N/A       -1  -5  83 E12G17     N/A   WCI -19
* PENDROY      N/A        3   2  96 N21G27     N/A   WCI -18
* ROGERS PASS  N/A       42  28  58 S6G16      N/A
* SAINT MARY   N/A       -3  -9  75 N7G12      N/A   WCI -17
* SWEET GRASS  N/A       -4  -7  87 VRB23G30    N/A   WCI -29
$$

MTZ011-013-016-021-035-040-045-047-050-051-290100-
NORTH CENTRAL MONTANA
CITY           SKY/WX    TMP DP  RH WIND       PRES   REMARKS
HAVRE          CLOUDY     7   1  76 NW16G24   29.62R WCI -11
LEWISTOWN      MOCLDY    52  30  43 SW18      29.40F
* N BAR RANCH  CLEAR     54  27  35 W14G30    29.41F
* CHESTER      N/A        9   3  76 E8G13      N/A   WCI  -3
* DENTON       N/A       20  19  96 NW13       N/A   WCI   7
* GEYSER       N/A       50  25  38 SW19G26    N/A
* JUDITH GAP   N/A       50  25  38 SW14G29    N/A
* LOMA         N/A        9   4  80 N16G26     N/A   WCI  -8
$$

MTZ017>020-022>027-061-062-290100-
NORTHEAST MONTANA
CITY           SKY/WX    TMP DP  RH WIND       PRES   REMARKS
GLASGOW        CLOUDY    28  25  89 NW17      29.44R WCI  16
GLENDIVE       CLOUDY    37  30  76 S10       29.43F WCI  30
JORDAN         CLOUDY    39  34  82 N22       29.40R WCI  29
SIDNEY         MOCLDY    28  27  96 CALM      29.43F
WOLF POINT     CLOUDY    28  25  89 NW10      29.44R WCI  19
* BEAVER HILL  N/A       44  32  63 S14        N/A
* CIRCLE       N/A       45  37  74 SW1        N/A
* LINDSAY DVD  N/A       47  33  58 SW13       N/A
* NAVAJO       N/A       19  17  92 N4         N/A
* SACO         N/A       29  26  89 NW17G22    N/A   WCI  17
$$

MTZ028>042-056>058-290100-
SOUTHCENTRAL AND SOUTHEAST MONTANA
CITY           SKY/WX    TMP DP  RH WIND       PRES   REMARKS
BAKER          CLOUDY    48  30  50 SW13      29.47F
BILLINGS       MOCLDY    54  28  37 SW13      29.50F
LIVINGSTON     CLOUDY    54  19  25 SW43G55   29.45F
MILES CITY     CLOUDY    45  34  65 SE8       29.43F
* LAUREL APT   PTCLDY    54  27  35 N/A        N/A
* ALZADA       N/A       46  28  50 E3         N/A
* HYSHAM       N/A       56  21  26 W5G16      N/A
* LAME DEER    N/A       53  26  35 SW14G23    N/A
* REED POINT   N/A       48  25  41 W3         N/A
* ROSCOE HILL  N/A       52   4  14 S19G45     N/A
$$

REGIONAL REPORTS...DAKOTAS
CITY           SKY/WX    TMP DP  RH WIND       PRES   REMARKS
WILLISTON      CLOUDY    25  19  78 SE3       29.43F
DICKINSON      MOCLDY    39  32  76 S12       29.43F WCI  32
BEACH          CLEAR     43  32  65 SW13      29.45S
CROSBY         MOCLDY    16  14  92 E7        29.47R WCI   6
BISMARCK       MOCLDY    19  16  88 SE10      29.55F WCI   8
GRAND FORKS    CLOUDY    16  10  77 SE10      29.75F WCI   4
FARGO          PTCLDY    18   9  68 E7        29.75S WCI   9
BUFFALO SD     CLOUDY    45  30  56 SW9       29.44F
RAPID CITY     CLOUDY    52  23  32 NW8       29.57S
$$

REGIONAL REPORTS...WYOMING/IDAHO/WASHINGTON
CITY           SKY/WX    TMP DP  RH WIND       PRES   REMARKS
GILLETTE       MOCLDY    52  25  35 SW24G30   29.58F
SHERIDAN       MOCLDY    57  21  25 SW9G18    29.56S
CODY           MOCLDY    48  19  32 W9        29.62F
YELLOWSTONE LA PTCLDY    37  14  39 VRB6      29.74F WCI  32
SALMON         MOCLDY    54  14  20 SW24G33   29.56R
MULLAN PASS    SNOW      32  32 100 S10G23    29.36S VSB 1/2  WCI  24
SAND POINT     RAIN      46  45  96 SW9G18    29.29F
SPOKANE        CLOUDY    50  41  71 S23G37    29.29F

$$




USA.gov is the U.S. government's official web portal to all federal, state and local government web resources and services.